RH
29 31 34 37 38 45 52 55 56 61 71 75 76 82 87 88 92 90 92 90 64 47 35 25 21 20 20 25 26 26 24 25 29 26 23 22 22 23 22 20 21 21 22
28 29 31 32 35 37 42 48 51 59 66 75 77 85 83 86 91 92 92 90 72 49 38 26 23 24 23 24 28 26 24 27 29 27 25 24 23 26 26 26 26 25 25
32 30 30 30 30 32 36 40 44 56 65 73 88 89 83 88 92 95 96 93 73 50 40 29 26 24 25 28 33 28 25 27 28 31 30 27 26 28 29 30 30 30 30
32 33 33 32 31 32 34 37 40 48 66 82 91 92 86 88 92 95 96 93 67 48 41 32 30 27 26 28 33 29 27 28 32 35 34 33 33 32 33 34 34 37 38
32 34 34 34 33 34 34 37 45 46 62 81 91 90 88 87 92 95 97 96 72 46 37 35 30 26 26 26 33 31 30 30 30 34 35 36 37 37 35 37 39 41 44
33 35 36 35 35 33 33 37 49 52 66 81 86 90 91 89 96 95 99 91 67 46 38 34 31 29 27 30 34 38 37 34 28 34 35 39 40 42 41 43 45 46 48
33 38 38 38 38 33 33 41 55 57 67 84 87 93 97 91 96 95 97 90 72 47 37 35 33 34 32 36 41 37 42 33 31 32 33 40 41 40 42 45 49 53 54
36 39 42 40 40 36 37 38 54 57 70 82 87 93 98 94 97 97 98 94 76 46 38 35 35 34 35 42 41 39 37 30 33 35 35 37 42 46 47 48 51 55 59
39 42 45 43 41 35 34 37 50 56 69 82 89 92 94 94 94 95 96 95 76 53 47 41 41 39 39 41 40 39 38 33 34 37 41 42 45 52 59 54 57 61 60
38 44 48 47 44 34 32 37 47 54 63 69 88 95 96 90 92 97 98 96 81 58 51 46 49 49 48 46 43 43 40 40 40 45 47 49 53 60 67 69 67 66 68
39 44 50 51 46 36 32 38 50 62 70 80 88 98 97 91 95 91 95 95 86 64 56 51 55 57 55 52 48 46 45 48 48 52 53 56 61 67 67 62 63 67 73
38 44 52 54 46 37 35 42 54 63 69 88 97 99 97 92 92 87 91 91 82 67 61 54 56 60 59 59 59 53 52 52 57 58 59 62 65 66 66 68 70 76 78
39 46 53 57 45 37 40 46 53 57 85 98 98 97 95 95 92 90 89 93 91 78 66 60 60 59 62 63 61 57 55 60 60 63 65 65 64 64 67 70 75 77 79
41 49 55 56 46 40 44 48 50 69 96 99 99 99 97 95 93 93 92 91 92 89 84 79 71 65 66 65 60 66 71 66 64 61 63 63 65 69 72 75 77 78 81
46 50 56 56 49 42 45 46 51 65 88 98 96 96 97 98 96 95 94 93 91 91 88 82 77 74 75 79 85 81 77 74 72 67 64 69 74 77 80 80 80 80 83
51 53 59 56 50 46 45 44 51 59 79 97 99 98 97 98 97 97 95 95 96 93 87 85 85 88 90 91 87 84 81 80 78 75 72 75 84 85 83 82 81 76 78
55 56 62 53 54 49 45 47 52 58 69 86 96 99 98 98 98 97 98 96 96 93 90 87 90 92 93 92 91 88 84 84 81 76 74 77 81 86 86 77 72 71 70
63 60 65 54 59 56 47 50 52 58 68 89 97 98 97 99 99 97 96 95 96 96 92 93 91 92 92 93 94 91 88 81 78 74 74 74 75 77 78 70 68 66 69
67 65 67 58 65 63 51 52 54 58 66 80 95 98 97 98 99 99 96 95 96 97 97 93 90 90 92 94 95 91 86 76 73 72 70 68 69 72 74 75 79 84 89
66 68 69 63 69 69 59 56 56 57 62 72 82 94 96 97 95 96 96 97 97 95 93 90 86 90 91 88 89 85 77 72 70 70 76 80 82 83 85 88 92 95 96
74 71 72 67 72 74 68 61 61 60 67 67 77 84 92 96 98 98 98 97 95 99 94 86 84 86 86 87 80 76 69 72 76 81 81 84 93 92 97 97 96 97 98
83 74 74 68 74 76 73 68 66 62 65 64 74 78 83 88 94 98 99 92 98 98 92 86 78 79 78 78 76 72 70 77 81 81 84 89 89 87 87 90 92 94 92
93 84 77 79 76 77 75 75 71 65 63 62 69 73 80 82 84 87 95 91 86 85 80 82 74 76 74 71 71 73 78 83 84 85 86 91 93 96 94 96 88 90 95
83 87 84 86 86 84 80 78 77 76 73 67 69 66 72 74 80 83 85 82 79 78 77 78 77 75 75 76 81 83 85 82 85 94 99 98 98 98 99 91 72 67 57
99 93 89 92 91 87 86 83 82 84 82 81 73 75 68 72 77 69 82 81 75 77 77 77 79 81 77 81 84 82 88 96 98 98 99 98 93 90 78 70 51 45 44
99 93 99 91 96 93 94 92 91 91 89 86 84 84 78 74 73 77 74 78 81 81 81 83 85 90 93 95 93 92 94 99 98 98 98 86 67 62 55 48 46 44 41